Location: Costa Mesa
(33.6411°N, 117.9187°W)
Time: 23:30:03
(UTC+00:00)

SL-16 R/B - Pass Details

Date: 10 September 2024
Orbit: 842 x 845 km, 71.0° (Epoch: 09 October)

Event Time Altitude Azimuth Distance (km) Brightness Sun altitude
Rises 12:28:24 0° 323° (NW) 3,406 5.1 -13.9°
Reaches altitude 10° 12:31:18 10° 309° (NW) 2,467 4.3 -13.3°
Maximum altitude 12:35:38 23° 259° (W) 1,719 3.2 -12.4°
Drops below altitude 10° 12:39:58 10° 208° (SSW) 2,456 4.2 -11.5°
Sets 12:42:52 0° 195° (SSW) 3,386 5.1 -10.9°
